Location: Ar Ranvel
(48.3000°N, 4.8833°W)
Time: 14:16:25
(UTC+00:00)

ISS - Pass Details

Date: 06 October 2021
Orbit: 418 x 423 km, 51.6° (Epoch: 19 October)

Event Time Altitude Azimuth Distance (km) Brightness Sun altitude
Rises 19:08:34 0° 283° (WNW) 2,365 2.0 -14.2°
Reaches altitude 10° 19:11:28 10° 255° (WSW) 1,497 0.1 -14.7°
Maximum altitude 19:13:11 13° 225° (SW) 1,304 -0.8 -14.9°
Drops below altitude 10° 19:14:54 10° 194° (SSW) 1,493 -0.9 -15.2°
Enters shadow 19:16:56 - 172° (S) 2,060 -0.4 -15.6°
